Meteo Giornale » Osservazioni meteo Gran Bretagna » Topcliffe Royal

ore: 02:50 - Osservazioni Meteo Topcliffe Royal
Lat. 54° 12' N Lon. 1° 23' W Alt. 28 metri s.l.m.

nuvoloso Europe/London

8 °C

Nuvoloso

Temp. 24 Ore

5 °C

13 °C

Ovest

13 Km/h

Dew point 4 °C

Umidità 75 %

Visibilità  10 Km

Il sole sorge alle ore 06:53

Il sole tramonta alle ore 19:00

Data e Ora Cielo e Fenomeni T °C DP °C Um. % Pres. hPa Vis. km Vento km/h
Oggi h: 02:50 nuvoloso Nuvoloso 8 4 75 1033 10 O 13
Oggi h: 01:50 molto_nuvoloso Molto Nuvoloso 7 4 81 1032 10 O/NO 11.1
Ieri h: 23:50 sereno Sereno 8 5 81 1030 10 O 11.1
Ieri h: 22:50 sereno Sereno 8 5 81 1029 10 NO 13
Ieri h: 21:50 sereno Sereno 8 5 81 1028 10 O/NO 14.8
Ieri h: 20:50 sereno Sereno 8 5 81 1027 10 O/NO 7.4
Ieri h: 19:50 poco_nuvoloso Poco Nuvoloso 9 6 81 1026 10 O 7.4
Ieri h: 18:50 poco_nuvoloso Poco Nuvoloso 10 6 76 1025 10 N 3.7
Ieri h: 17:50 poco_nuvoloso Poco Nuvoloso 12 5 62 1024 10 NO 11.1
Ieri h: 16:50 nuvoloso Nuvoloso 13 4 54 1023 10 N/NO 14.8
Ieri h: 15:50 molto_nuvoloso Molto Nuvoloso 12 5 62 1022 10 N/NE 22.2
Ieri h: 14:50 poco_nuvoloso Poco Nuvoloso 11 4 61 1021 10 N 24
Ieri h: 13:50 poco_nuvoloso Poco Nuvoloso 12 6 66 1020 10 N 16.7
Ieri h: 12:50 molto_nuvoloso Molto Nuvoloso 11 6 71 1019 10 N 20.3
Ieri h: 11:50 molto_nuvoloso Molto Nuvoloso 12 6 66 1018 10 N/NO 18.5
Ieri h: 10:50 poco_nuvoloso Poco Nuvoloso 10 6 76 1017 10 NO 22.2
Ieri h: 09:50 nuvoloso Nuvoloso 8 5 81 1017 10 N/NO 14.8
Ieri h: 08:50 nuvoloso Nuvoloso 7 4 81 1016 10 N/NO 13
Ieri h: 07:50 molto_nuvoloso Molto Nuvoloso 6 4 86 1016 10 NO 11.1
Ieri h: 05:50 molto_nuvoloso Molto Nuvoloso 5 3 86 1016 10 N 9.3
Ieri h: 03:50 molto_nuvoloso Molto Nuvoloso 6 4 86 1016 10 NO 9.3